Location: Unspecified
(0.0000°N, 0.0000°E)
Time: 23:57:34
(UTC+00:00)

Vanguard 1 Rocket - Pass Details

Date: 26 January 2020
Orbit: 650 x 4226 km, 34.3° (Epoch: 26 February)

Event Time Altitude Azimuth Distance (km) Brightness Sun altitude
Rises 18:30:09 0° 296° (WNW) 7,937 13.0 -4.2°
Reaches altitude 10° 18:35:25 10° 292° (WNW) 7,163 12.8 -5.4°
Maximum altitude 19:00:48 57° 219° (SW) 4,455 11.2 -11.4°
Drops below altitude 10° 19:20:44 10° 143° (SE) 5,764 11.3 -16.1°
Sets 19:24:30 0° 138° (SE) 6,383 11.5 -17.0°
